Location: Most
(50.5133°N, 13.6207°E)
Time: 04:16:32
(UTC+02:00)

Tiangong - Visible Passes

Search period start: 27 September 2021 00:00
Search period end: 07 October 2021 00:00
Orbit: 382 x 385 km, 41.5° (Epoch: 26 September)

Date Brightness Start Highest point End Pass type
(mag) Time Alt. Az. Time Alt. Az. Time Alt. Az.
29 Sep 3.5 06:14:44 10° SSW 06:16:37 15° S 06:18:30 10° SE visible
30 Sep 3.6 05:16:36 12° S 05:16:55 12° SSE 05:18:21 10° SE visible
01 Oct 3.3 05:51:44 12° SSW 05:53:16 16° S 05:55:20 10° SE visible
02 Oct 3.7 04:54:40 13° SSE 04:54:40 13° SSE 04:55:25 10° SE visible
02 Oct 3.4 06:27:45 10° SW 06:29:39 15° S 06:31:33 10° SSE visible
03 Oct 3.2 05:29:48 16° S 05:29:54 16° S 05:31:58 10° SE visible
04 Oct 3.4 06:04:58 11° SW 06:06:14 13° SSW 06:07:44 10° SSE visible
05 Oct 3.8 05:07:58 12° SSE 05:07:58 12° SSE 05:08:24 10° SSE visible
